Wind_Speed
16 15 15 14 13 11 9 8 6 4 5 10 11 8 6 5 5 6 6 6 6 7 8 9 9 10 10 11 12 13 15 17 18 18 20 21 21 22 24 25 26 27 28 29 30 31 32 32 33 33 32 32 32 31 31 31 30 29 29 29 29 26 23 25 28 31 33 35 37 38 39 39 40 39 39 37 36 36 36 36 35 35 34 33 32
13 12 12 11 9 6 5 4 2 4 10 12 10 7 6 6 6 6 7 7 7 7 9 10 10 10 10 10 11 13 16 18 20 20 20 21 21 22 23 25 26 27 28 29 30 31 32 32 33 32 32 31 31 31 31 32 32 32 30 29 29 27 24 23 25 28 33 36 38 39 39 39 39 40 40 40 40 40 39 38 38 37 37 36 34
11 10 9 9 7 4 2 3 6 10 13 11 8 7 7 7 7 6 6 6 7 8 9 9 9 9 9 10 12 15 18 21 23 24 24 24 24 24 25 26 27 28 29 29 30 30 31 32 32 32 31 30 30 30 31 32 33 34 32 29 29 28 28 28 28 29 32 35 38 40 40 40 40 41 42 43 43 43 42 42 42 42 42 41 41
10 8 8 7 6 4 5 8 12 14 13 10 8 7 6 6 6 6 6 6 6 7 7 7 7 8 9 11 14 17 19 22 24 26 27 27 27 27 28 29 29 30 31 31 31 32 33 33 34 33 32 30 30 31 32 34 34 34 34 33 32 30 29 30 30 30 31 33 36 39 40 40 40 41 43 44 45 45 46 46 47 47 47 46 46
10 9 9 8 7 6 8 13 16 16 13 11 9 8 6 4 3 3 4 4 5 5 6 7 8 10 11 14 16 18 20 22 25 28 29 29 29 30 31 32 32 33 33 34 33 32 33 33 34 35 33 31 30 32 33 35 36 36 35 35 35 34 32 31 31 31 32 31 33 35 37 39 39 39 42 44 45 46 48 49 50 50 50 50 50
12 11 11 9 8 7 12 16 17 16 14 13 10 9 6 4 2 2 2 4 5 5 6 8 9 12 14 16 18 20 21 23 26 28 29 30 31 31 32 33 34 35 36 36 36 34 32 33 34 35 34 32 31 33 34 35 36 37 37 37 36 35 34 33 32 32 32 32 32 33 36 39 39 39 41 44 45 47 48 49 49 50 50 50 50
13 13 13 11 9 9 15 18 16 16 15 14 12 9 7 5 3 2 4 6 8 9 9 10 12 14 17 17 18 20 22 24 27 30 32 34 34 34 34 35 36 37 37 38 38 36 34 32 33 34 34 32 32 34 35 35 36 37 37 37 36 35 34 34 34 33 33 33 34 34 35 37 39 40 43 45 47 48 48 47 45 45 45 45 46
14 14 14 13 10 12 18 18 16 16 16 15 13 11 8 5 4 5 8 10 13 14 15 15 16 18 19 19 20 21 23 25 28 31 35 36 36 36 36 37 38 38 38 38 38 37 35 33 32 33 32 31 32 35 35 35 36 37 36 36 36 35 34 34 34 34 33 33 34 35 35 37 39 42 44 44 44 44 44 43 41 40 40 41 43
15 15 15 14 13 16 19 18 16 16 16 16 15 11 8 6 7 9 11 13 15 16 17 18 19 21 22 23 23 24 26 27 30 33 35 36 36 36 37 39 40 40 39 37 35 34 34 33 32 32 31 30 31 34 35 35 35 36 36 36 36 36 35 36 36 35 35 34 34 34 35 36 38 40 41 41 41 41 42 41 41 40 41 43 43
17 16 16 15 16 19 19 17 16 16 16 18 16 11 9 8 9 11 13 15 16 17 18 19 21 23 25 26 26 27 28 29 32 33 35 35 36 37 38 39 39 39 38 37 34 32 33 33 32 31 30 30 32 33 34 35 35 35 36 36 36 36 36 36 36 37 37 37 37 38 39 39 41 42 42 43 44 45 46 46 46 46 46 46 46
19 18 17 18 19 21 20 17 17 17 18 19 17 12 10 11 11 12 14 16 17 18 19 20 22 24 27 28 29 30 31 31 32 34 35 36 37 38 39 39 38 37 37 35 33 32 32 31 30 28 28 30 32 34 35 35 35 36 37 37 36 36 36 36 37 38 40 41 42 43 45 45 46 46 47 47 48 48 49 50 50 49 49 49 48
21 19 19 20 21 21 20 19 19 19 19 18 16 13 13 13 13 15 16 17 19 20 20 21 23 26 28 30 32 34 34 34 34 36 38 38 37 38 40 40 39 36 34 32 31 30 29 28 27 27 28 30 33 34 35 35 36 38 38 37 38 38 38 38 40 42 43 44 46 47 48 49 49 49 50 50 49 48 49 50 50 50 49 49 49
23 21 21 21 21 21 21 21 21 21 20 19 17 16 15 15 16 18 19 20 21 22 22 23 24 26 30 32 34 35 36 36 36 38 41 40 38 38 40 40 38 35 32 30 29 28 27 26 26 26 28 31 33 35 35 35 37 39 38 38 39 39 40 41 43 44 45 46 48 49 51 51 51 52 53 52 50 49 49 49 49 49 49 49 50
26 22 23 23 22 22 23 23 23 23 22 21 20 19 18 18 19 20 21 22 24 24 26 27 26 28 32 35 37 38 39 38 36 39 43 44 41 40 40 38 36 33 31 29 28 27 26 27 27 28 30 33 34 36 36 36 37 38 39 39 39 40 41 42 43 45 46 48 49 51 52 53 54 54 53 52 52 51 50 49 49 49 50 51 51
28 25 25 25 24 24 24 24 24 24 23 23 22 21 20 20 21 22 24 25 26 27 29 29 28 31 37 40 40 41 42 41 39 41 44 43 40 39 38 36 34 33 31 31 30 29 28 28 29 31 33 34 36 37 37 37 38 38 39 40 41 41 42 43 45 47 48 50 51 52 54 54 54 54 52 52 52 52 52 51 50 50 51 50 49
29 28 27 27 26 26 26 26 25 24 24 25 24 22 22 22 22 24 25 26 28 29 30 31 32 35 41 43 43 42 43 42 41 41 43 41 39 38 37 35 34 34 33 33 31 31 31 31 31 33 35 36 37 37 37 38 39 40 40 41 41 43 44 46 48 49 50 52 53 53 54 54 53 52 52 51 52 52 52 51 50 50 50 49 47
30 30 29 29 29 29 28 28 26 26 26 26 24 23 23 23 23 25 26 27 29 31 33 35 37 40 43 45 44 41 40 39 37 37 39 40 39 38 37 35 35 35 35 34 33 33 33 33 33 35 36 37 37 37 38 39 40 41 41 41 42 43 45 47 49 50 51 52 53 53 53 53 52 51 51 51 51 51 51 50 50 50 50 49 46
32 31 31 31 32 31 30 29 28 27 26 26 24 24 24 24 24 26 27 28 30 33 35 38 40 42 44 42 40 38 36 33 33 36 39 40 40 39 37 35 35 35 35 34 34 34 34 34 34 36 37 38 37 38 39 40 41 41 41 42 42 43 45 46 48 50 51 51 51 51 50 50 50 50 49 49 49 50 51 51 51 50 48 46 44
34 34 34 33 34 33 32 30 28 27 25 24 24 25 25 24 25 27 28 30 31 34 37 40 42 44 43 40 38 37 35 34 36 39 41 41 41 40 37 35 34 35 34 34 34 35 35 35 35 36 37 37 38 39 41 41 42 42 42 42 43 45 45 46 47 48 49 48 48 48 48 48 48 49 49 50 51 52 52 50 48 46 43 41 39
38 37 38 37 36 34 33 31 29 25 23 23 25 26 25 25 26 28 30 31 33 36 38 40 42 42 41 39 38 37 36 37 39 41 42 42 41 39 37 35 35 35 34 34 35 35 35 35 36 37 37 38 39 41 42 42 43 43 43 44 45 45 46 46 46 46 46 46 46 47 48 49 49 50 51 52 52 51 49 46 43 41 39 37 36
43 43 42 40 38 35 34 31 27 24 24 25 26 26 26 27 29 30 32 33 35 37 38 39 40 39 37 36 37 36 36 38 41 43 43 42 41 40 38 36 35 35 35 35 35 35 35 36 37 38 39 39 40 41 42 43 44 44 44 45 45 45 44 44 44 44 44 45 46 48 49 50 51 52 51 50 48 46 43 40 39 37 36 35 35
49 47 46 43 39 37 36 30 25 25 27 28 28 28 28 30 32 32 34 36 38 39 39 39 40 38 37 37 38 37 37 41 43 44 43 42 41 39 37 35 35 36 35 35 35 36 37 38 39 40 40 40 41 42 43 43 44 44 44 44 43 43 43 42 43 44 45 46 48 49 49 50 49 49 47 45 43 41 39 38 36 35 34 34 34
53 50 49 46 42 39 36 30 28 30 31 30 30 31 31 32 33 34 36 39 41 41 41 41 40 39 38 39 39 39 40 43 44 44 44 43 41 39 37 37 36 36 36 36 36 37 38 40 41 41 41 41 42 42 43 43 43 43 42 42 42 42 42 43 45 46 47 47 47 47 46 46 45 44 42 40 39 38 37 36 36 36 35 34 33
57 55 53 50 46 42 38 33 32 32 32 32 32 32 32 34 35 36 39 41 42 43 44 43 41 39 39 40 41 42 43 45 45 45 45 43 41 39 38 38 37 37 37 37 38 39 40 41 42 42 42 42 42 42 42 42 42 41 40 40 41 42 44 45 46 46 46 45 44 43 43 42 42 40 38 37 37 36 35 35 34 33 32 31 30
61 61 59 55 51 45 40 36 35 35 34 32 32 31 32 35 36 38 41 43 44 46 46 43 39 38 39 41 44 45 45 46 46 45 44 41 40 39 39 39 38 38 38 39 39 40 41 42 42 42 42 42 41 41 42 42 41 40 40 41 43 45 46 46 44 43 42 41 41 41 41 41 40 38 38 37 37 36 34 32 31 30 29 28 29
67 66 63 58 55 51 48 44 41 40 35 30 30 32 34 37 39 41 44 45 45 46 44 39 36 37 40 43 46 47 47 47 46 43 41 39 39 40 39 38 39 39 39 40 40 42 42 42 41 41 41 41 41 41 41 41 40 40 41 43 45 46 45 42 40 39 39 40 41 42 42 41 40 40 39 38 37 35 33 30 29 28 26 27 28
69 65 59 55 53 52 51 48 41 34 30 28 30 34 37 39 42 43 45 47 46 43 39 36 36 39 42 45 47 48 48 47 45 42 40 40 40 40 39 39 39 40 40 41 42 42 42 42 41 41 41 41 41 40 41 41 40 41 42 43 44 44 42 38 37 38 40 41 42 42 42 41 41 41 40 38 36 34 32 29 28 27 26 26 28
66 59 51 48 47 43 41 38 32 27 28 30 33 36 39 42 43 45 48 50 46 40 38 38 40 42 44 46 48 48 47 46 45 42 41 41 41 40 40 40 41 41 41 42 43 43 42 41 41 41 41 41 40 40 40 41 41 42 42 42 41 41 39 37 37 39 40 41 41 41 40 40 40 39 37 35 33 31 29 28 27 27 27 27 28
63 54 42 38 40 36 30 29 28 28 30 32 35 38 40 42 44 46 49 47 41 38 39 41 42 44 46 49 50 48 46 45 44 42 41 41 41 41 41 40 40 41 42 43 43 42 41 41 41 40 40 40 39 39 40 41 42 41 41 40 39 38 37 36 37 39 39 39 39 38 38 36 35 34 32 31 29 27 26 26 26 26 27 27 28
52 47 37 31 30 27 25 25 27 29 32 35 38 41 43 44 43 43 44 44 43 43 44 43 43 45 48 51 51 47 43 43 42 41 40 41 41 40 40 40 40 42 42 42 41 40 40 40 40 39 39 38 38 39 40 41 41 40 39 38 37 37 36 35 36 37 37 37 37 36 35 34 32 30 29 28 27 26 25 25 26 26 27 28 28
35 36 34 30 27 25 24 26 29 32 35 39 41 42 44 44 42 41 43 47 49 49 46 45 46 48 49 50 48 43 40 40 40 40 39 39 39 38 39 39 40 40 40 40 40 40 40 39 38 38 37 37 38 39 40 39 38 37 36 36 35 34 34 33 34 34 35 36 36 36 35 33 31 29 28 26 26 25 25 25 26 27 27 28 28
26 30 32 32 30 28 28 31 34 36 38 40 42 43 43 43 42 43 46 49 50 49 48 49 50 49 46 44 41 38 37 38 39 39 38 38 37 37 38 38 38 38 38 39 39 40 39 37 36 36 37 37 37 38 38 37 35 34 33 32 31 31 31 32 33 34 34 35 35 35 34 32 31 29 27 26 25 25 26 26 27 27 28 28 28
25 28 30 31 31 31 33 36 38 39 41 42 44 46 45 43 43 46 48 49 50 49 48 46 45 43 41 39 38 37 37 38 37 37 37 37 37 37 37 37 37 37 38 39 39 38 37 36 35 36 36 36 36 36 35 34 33 31 30 29 29 29 29 31 33 33 34 34 34 34 33 31 30 28 27 26 25 26 26 27 27 28 28 28 28
26 29 30 31 34 36 39 40 41 42 43 44 46 47 46 45 47 49 49 49 49 48 44 42 42 42 40 38 37 37 38 37 36 36 36 37 36 36 36 36 37 38 38 37 37 36 35 34 34 35 35 35 35 33 31 30 29 28 27 27 28 28 29 30 31 32 32 32 32 32 31 30 28 27 26 25 25 26 26 27 27 27 27 27 27
29 31 32 34 37 40 41 41 42 44 46 48 49 48 47 47 50 51 50 49 48 45 43 43 43 41 38 37 37 37 37 36 36 36 36 36 35 35 36 36 37 37 36 35 35 34 33 32 33 34 35 35 32 29 27 27 26 25 26 26 27 27 27 28 29 30 30 30 30 29 29 28 27 26 25 25 25 25 26 27 27 27 27 27 27
32 34 35 38 41 41 41 43 45 47 49 49 50 50 49 49 50 51 53 53 49 45 42 42 41 38 37 37 37 36 36 35 35 35 35 35 35 35 35 36 36 35 35 34 33 32 31 32 33 35 34 31 27 25 25 24 24 24 25 25 25 25 26 27 28 28 29 29 29 28 27 27 26 25 24 24 24 25 26 26 27 27 27 27 28
34 36 39 40 41 41 43 45 48 50 51 51 50 48 48 49 51 53 54 50 45 42 40 39 37 37 37 37 36 35 35 35 35 35 34 34 34 34 34 34 34 34 34 33 32 31 31 33 35 34 31 26 23 22 22 22 23 23 23 23 23 24 25 25 26 27 28 28 28 28 27 27 26 25 25 25 25 25 26 27 27 28 28 28 29
37 40 42 43 43 43 45 46 46 47 49 50 49 48 49 51 53 53 48 41 36 36 36 36 36 36 36 36 35 34 34 34 34 34 34 34 34 34 33 33 34 34 34 32 31 31 33 34 34 30 26 22 21 21 21 21 22 22 21 21 23 23 24 25 26 26 27 27 27 28 28 28 27 27 26 26 26 26 26 27 27 27 28 28 29
38 40 42 42 43 43 45 46 47 49 50 52 53 54 55 54 52 48 42 36 34 34 34 34 35 36 35 35 34 33 33 34 34 34 33 33 33 33 33 33 33 34 33 32 31 32 34 33 30 25 22 20 20 20 20 20 21 20 20 22 23 23 24 24 25 26 27 27 27 28 29 29 29 28 28 27 27 27 27 27 27 27 27 28 29
38 40 41 43 43 43 43 45 47 51 54 56 56 55 53 50 46 42 38 34 33 34 34 34 35 35 35 34 34 33 34 34 34 33 33 33 33 32 33 33 33 34 33 32 31 32 32 30 26 22 20 19 18 18 19 19 20 20 21 22 23 24 24 24 25 26 27 27 28 28 29 29 30 29 29 28 28 28 28 28 27 28 28 28 29
38 39 42 44 46 47 47 48 50 51 52 51 48 44 41 40 39 37 34 33 33 33 33 34 34 34 33 33 34 34 34 34 33 33 33 32 32 32 33 34 34 34 34 33 31 31 29 26 22 20 19 18 18 18 18 18 19 20 22 22 23 24 25 25 26 26 27 27 28 29 29 30 30 30 30 29 28 28 27 27 27 27 27 28 28
41 42 42 43 45 47 48 48 48 45 40 36 34 33 34 35 35 33 31 32 33 33 32 32 33 32 32 33 34 34 34 33 33 32 31 31 32 33 34 35 36 35 34 33 31 29 26 23 21 19 18 17 17 17 17 18 19 20 21 23 24 24 25 26 26 27 27 28 29 29 30 30 31 31 30 30 29 28 27 27 27 26 26 26 26
43 43 42 42 44 45 43 40 37 33 29 28 29 32 34 35 33 31 31 33 33 33 33 33 32 32 33 33 34 33 32 32 31 30 30 31 32 34 36 36 36 34 33 31 29 26 23 21 19 18 17 16 16 17 17 18 20 21 22 23 23 24 24 25 26 27 28 28 29 29 30 30 31 31 31 30 29 28 27 26 25 24 24 24 23
41 42 44 46 47 45 41 36 33 31 31 33 34 34 34 33 33 33 33 34 34 34 34 34 33 33 33 33 33 32 31 30 30 30 31 32 34 35 36 35 34 32 31 28 25 23 21 20 18 16 16 16 16 17 18 19 20 22 23 23 24 24 25 25 26 27 27 28 29 29 30 30 31 31 31 31 30 28 26 24 23 22 22 22 22
41 41 44 44 41 36 34 34 35 37 39 38 35 32 31 32 34 35 35 35 34 34 34 34 33 33 33 32 31 30 31 31 30 30 31 33 35 35 34 32 30 29 27 25 23 21 20 19 17 16 15 16 17 18 19 20 21 22 23 24 24 24 25 26 26 27 27 28 28 29 29 30 30 31 31 31 30 28 25 22 21 21 21 21 22
42 42 43 40 35 30 27 28 31 33 34 32 31 31 31 32 33 34 35 35 34 34 34 33 32 32 31 30 30 30 31 31 31 31 32 34 34 34 32 30 28 27 25 24 22 21 20 18 17 16 15 16 18 19 20 21 22 23 23 23 23 24 25 25 26 26 27 28 28 29 29 29 29 30 31 31 30 28 25 22 21 20 20 21 22
38 37 36 35 33 31 27 24 24 27 29 31 33 34 34 33 33 34 35 35 34 34 33 32 31 31 30 30 30 30 30 31 32 33 34 34 34 33 31 29 27 26 25 23 22 21 20 19 18 17 16 17 19 20 21 21 22 23 24 24 23 24 25 25 26 26 27 27 28 28 28 29 29 29 30 30 30 29 26 23 21 21 21 21 21
29 29 28 28 29 31 30 29 30 32 34 36 36 36 35 35 35 34 34 34 34 33 33 31 30 30 30 30 30 30 31 32 33 34 34 34 34 33 31 28 26 25 24 23 21 19 19 19 19 18 17 18 19 20 21 22 23 23 24 25 25 25 25 26 26 26 26 27 27 28 28 28 28 28 29 29 29 29 27 24 22 21 21 21 21
25 27 28 28 29 31 32 32 32 34 35 36 36 35 35 34 34 33 33 34 34 33 32 31 30 30 30 30 30 30 32 33 33 34 34 34 34 32 30 28 26 25 24 22 19 18 18 19 19 19 19 19 20 21 22 23 23 23 24 24 25 25 25 25 25 26 26 26 27 27 28 28 28 27 27 28 28 29 28 26 23 22 22 22 21
28 30 30 28 26 28 30 31 33 34 36 36 35 34 34 33 33 33 33 33 33 33 32 31 30 30 30 30 31 32 33 33 33 34 34 33 32 31 29 27 25 24 22 20 18 18 18 19 20 20 21 21 21 21 22 23 23 23 24 24 24 24 24 24 25 25 25 26 26 27 27 27 27 27 27 27 27 28 28 27 25 23 22 21 21
32 34 33 31 31 33 35 36 36 37 37 36 35 35 35 35 35 34 34 33 33 33 32 31 30 30 30 32 33 34 34 34 34 34 33 31 30 29 27 25 23 23 21 19 17 18 19 20 20 21 22 22 22 23 23 23 23 23 24 24 24 24 23 23 24 24 24 25 25 26 26 27 27 27 27 26 26 27 27 27 26 24 23 22 21
Wind_Direction
257 260 262 263 266 271 269 260 259 256 211 189 184 189 208 235 259 271 280 286 297 315 328 337 349 357 355 347 343 345 347 345 343 342 344 347 349 349 349 347 345 343 340 338 335 334 332 331 331 333 334 331 330 328 328 327 326 322 319 317 316 313 303 294 292 292 292 291 289 288 286 284 282 278 277 276 277 277 279 280 280 278 277 277 277
259 261 263 265 265 266 258 247 226 184 182 181 183 198 220 245 262 273 286 296 307 319 327 337 349 356 358 353 349 351 351 349 345 341 338 339 341 342 342 343 343 341 339 338 336 334 332 329 329 330 331 330 328 327 327 328 328 327 325 321 319 317 309 299 293 292 292 292 291 290 288 286 284 282 281 281 280 279 279 278 277 275 274 274 275
255 258 260 260 254 238 212 180 160 168 177 180 190 212 230 252 269 283 294 302 311 318 325 337 347 348 344 342 347 352 352 350 347 343 338 335 334 335 335 335 337 338 337 335 333 332 331 328 326 327 328 328 326 325 325 325 326 326 325 323 318 315 310 302 295 290 289 290 291 292 291 291 290 289 288 287 287 286 285 283 281 279 276 274 272
246 247 247 246 237 207 168 158 159 166 176 184 199 218 236 257 277 293 301 306 314 318 321 327 330 328 329 336 343 347 346 343 341 338 336 333 332 333 332 330 330 332 333 333 331 329 329 328 325 324 325 325 324 322 322 322 323 324 323 322 321 319 317 311 303 296 293 292 292 291 291 293 295 294 293 292 292 293 292 290 288 285 283 280 277
234 233 235 233 229 200 167 163 164 167 176 190 203 217 232 249 268 286 298 308 319 323 317 316 322 326 333 340 342 339 337 335 334 334 332 331 330 331 332 330 329 328 329 329 328 326 325 324 323 321 321 322 322 320 320 321 321 322 322 322 323 323 322 317 310 302 296 294 293 290 289 292 295 296 296 295 295 295 295 293 291 288 286 284 282
224 227 230 225 225 203 173 170 172 170 175 190 206 218 219 207 198 232 289 314 329 335 327 322 326 331 335 337 334 332 331 331 333 333 331 329 328 328 330 330 328 327 326 326 325 323 320 319 319 318 317 318 318 318 319 320 320 321 322 323 324 324 322 318 313 307 300 295 292 290 288 290 292 295 294 293 293 293 293 293 292 290 288 287 285
220 223 225 221 221 198 177 177 178 173 177 190 203 212 211 203 215 277 310 322 328 332 332 332 331 331 335 337 333 330 331 332 333 333 331 330 329 328 328 328 328 327 325 324 323 321 317 314 314 314 313 314 316 316 317 318 319 320 322 323 323 322 319 316 314 310 306 301 295 291 288 288 289 289 288 288 290 292 293 293 292 290 289 288 287
219 219 219 216 212 189 180 184 183 177 180 189 195 201 210 235 278 304 314 321 326 328 331 335 335 333 334 336 334 331 330 331 331 330 329 328 326 327 328 327 326 325 324 322 320 317 313 311 311 310 309 311 314 313 314 316 318 319 320 319 318 317 316 314 312 310 308 305 300 296 293 291 290 289 289 289 291 292 292 292 291 289 288 287 287
220 218 215 209 202 190 187 191 190 185 184 185 192 203 220 256 286 300 310 317 322 327 332 336 335 333 333 334 332 329 329 330 329 327 325 323 323 324 325 325 324 323 322 321 318 314 311 310 310 308 306 309 310 310 312 314 315 315 316 315 314 314 314 313 312 311 309 307 304 300 299 299 298 297 296 295 294 293 292 290 288 287 285 286 286
221 217 212 202 198 197 196 199 200 197 191 188 196 213 237 264 283 293 302 311 317 324 332 334 332 331 330 330 328 326 326 328 328 326 323 321 321 321 322 322 322 320 319 319 317 313 309 309 309 305 304 306 307 308 310 310 311 313 313 313 313 312 312 312 311 311 309 307 305 303 303 303 301 299 297 296 294 293 291 290 289 289 289 288 288
225 216 210 202 200 201 201 204 207 206 200 197 204 221 245 265 278 287 297 305 313 320 325 328 328 326 325 324 322 322 324 325 324 323 320 318 317 319 322 323 321 318 317 317 315 311 310 309 307 304 304 305 306 308 308 308 311 314 313 311 311 310 309 310 309 307 307 305 304 302 301 299 297 295 294 294 294 294 293 293 293 293 293 293 292
231 216 211 205 202 203 204 205 210 212 208 207 215 230 247 260 271 281 292 300 306 313 318 320 321 320 320 319 318 319 321 320 320 319 317 316 315 317 320 322 321 319 317 315 312 311 310 308 306 304 304 305 306 308 308 308 311 314 313 310 308 308 308 308 306 305 304 302 300 299 298 297 296 297 297 298 299 299 298 297 297 296 296 295 294
240 223 216 212 205 205 206 208 212 215 214 215 225 237 248 258 267 276 285 293 299 306 311 312 313 316 318 315 314 315 315 315 318 317 315 316 317 317 318 319 320 320 318 313 311 311 310 308 306 306 305 305 306 308 309 310 312 313 311 309 307 306 306 305 304 303 302 301 300 300 300 299 300 301 301 302 303 303 301 300 299 298 297 297 296
251 236 223 217 210 208 210 211 214 217 218 222 230 239 248 257 267 276 282 288 295 302 306 305 302 307 313 311 310 311 310 312 317 315 313 317 320 319 317 318 320 321 317 313 312 312 311 309 308 307 306 305 307 309 310 311 312 312 310 309 307 306 305 304 304 303 303 302 301 301 301 300 300 301 302 303 303 302 301 300 299 299 298 298 298
256 249 235 222 213 212 213 214 215 218 220 226 233 240 249 258 268 277 282 289 297 304 309 306 296 297 304 308 309 309 307 309 313 310 308 314 320 318 315 317 320 319 315 314 314 313 312 311 310 308 307 307 308 310 312 313 313 312 310 309 308 307 305 304 304 303 302 301 301 301 300 300 301 301 302 302 302 301 300 300 300 299 298 299 299
255 254 245 230 218 214 215 215 216 219 222 227 233 241 250 259 270 279 284 292 301 304 307 305 298 297 303 306 307 308 306 304 304 304 303 307 313 313 312 314 316 315 314 314 314 313 313 313 312 310 308 309 310 312 314 314 314 312 310 309 308 306 304 303 303 302 301 301 301 301 301 301 301 301 301 300 300 299 299 300 300 299 299 300 299
256 254 250 238 225 218 216 216 217 220 223 228 234 243 253 262 272 280 286 293 299 301 304 305 303 303 305 306 307 308 308 304 299 299 302 305 308 311 311 312 312 312 313 314 314 314 314 313 312 310 309 310 311 312 313 313 312 311 309 307 305 304 303 302 301 301 301 301 301 301 301 301 300 300 300 299 299 299 299 300 300 300 300 299 298
258 256 252 243 231 222 218 218 221 224 227 232 238 247 257 266 275 282 287 292 297 301 304 305 305 305 306 308 309 310 310 307 303 303 305 306 308 310 311 310 310 311 313 315 315 315 314 312 311 310 310 310 310 311 311 311 309 309 307 306 304 303 302 301 300 300 300 301 301 301 301 300 300 300 300 300 300 300 300 300 300 299 298 297 296
258 257 253 245 236 227 223 221 223 227 232 238 245 252 261 270 278 284 289 294 298 302 304 305 306 306 305 306 308 309 308 307 307 307 307 305 306 309 310 309 309 311 313 315 314 313 312 311 310 310 310 309 308 308 309 309 309 308 307 306 305 305 304 303 302 301 301 301 301 302 301 301 302 302 302 302 301 301 300 300 299 298 297 297 297
255 254 251 245 239 233 228 226 226 229 235 242 250 257 265 273 280 284 289 294 297 300 303 305 307 307 305 304 305 306 307 307 308 307 306 305 304 306 307 307 309 312 315 315 313 312 311 311 310 310 309 308 307 307 308 308 308 307 307 308 308 307 305 303 302 301 301 302 303 303 304 304 304 303 302 301 300 300 300 299 298 298 298 299 301
251 250 248 245 240 235 232 230 228 231 236 243 250 259 267 272 277 282 287 291 294 294 297 301 303 303 301 301 302 304 305 306 306 306 306 305 304 305 306 308 311 314 316 316 314 312 311 310 309 309 309 308 306 307 307 307 307 308 309 310 308 306 303 302 302 303 304 305 305 305 305 304 303 302 300 299 299 300 300 300 300 301 302 303 305
248 248 248 245 239 234 233 234 232 234 239 244 251 258 263 268 273 280 284 286 286 288 290 295 297 297 296 298 301 301 303 306 306 305 305 306 306 306 308 312 315 316 317 315 314 312 310 309 309 309 309 308 307 307 307 307 308 309 310 308 306 303 303 304 305 306 307 306 306 305 304 303 302 301 300 300 301 301 301 301 302 304 305 306 306
248 248 248 246 239 233 233 234 233 236 240 244 250 256 261 267 272 277 280 281 282 285 288 291 293 295 296 298 299 299 302 307 307 305 306 307 307 307 311 314 316 317 316 315 313 312 310 309 309 309 308 307 307 307 307 308 309 309 308 305 304 305 306 308 308 308 307 306 304 303 302 302 302 302 303 303 303 302 302 304 305 307 308 307 305
247 247 246 245 240 234 231 231 232 236 240 244 250 257 263 269 273 276 278 280 283 286 287 289 293 297 298 298 298 300 304 307 307 307 308 307 306 308 312 315 316 316 316 315 313 311 310 310 310 309 309 308 307 308 309 309 308 306 305 304 305 308 309 309 308 307 304 303 301 301 302 303 303 304 304 304 304 304 305 306 307 308 308 306 304
242 244 243 242 238 231 226 226 230 234 238 244 253 261 267 271 274 277 279 282 285 288 287 287 292 297 297 298 300 302 305 308 309 309 308 307 308 311 314 315 316 316 315 314 312 311 311 311 310 309 308 308 308 310 309 308 306 305 305 306 309 310 310 309 307 304 301 300 300 301 303 304 303 303 304 304 304 305 306 307 307 306 306 303 300
238 240 239 236 232 226 222 222 224 230 238 248 257 263 267 270 272 275 278 279 281 286 287 287 292 297 298 300 302 304 307 310 311 310 309 309 311 314 315 315 315 315 314 312 312 311 311 311 310 309 308 309 310 309 308 307 306 306 308 310 311 310 308 307 304 301 300 301 302 304 305 305 304 304 304 304 304 305 306 307 306 304 302 299 297
237 240 239 236 232 229 226 224 226 234 246 256 261 264 268 270 271 273 275 275 276 282 286 287 291 296 298 301 303 305 308 311 310 310 311 312 314 315 315 314 313 313 312 311 311 311 311 310 310 309 309 310 310 309 307 307 307 309 311 312 310 308 308 308 305 303 303 305 306 307 306 305 304 304 304 304 304 305 307 307 306 303 301 298 296
236 241 243 238 233 232 230 231 238 251 258 262 266 268 271 273 274 275 276 275 276 280 284 286 290 294 297 300 302 305 308 310 309 309 312 313 314 313 312 312 311 311 310 310 310 310 310 310 310 309 309 309 309 308 307 307 309 312 313 311 309 310 311 310 307 305 306 306 307 306 305 304 304 304 304 305 305 305 306 306 304 301 299 296 294
231 237 240 232 224 226 234 244 255 262 265 267 269 271 272 275 277 279 280 278 278 283 286 286 288 291 295 298 300 304 308 309 308 310 313 313 312 311 309 309 310 309 308 309 309 310 310 310 310 310 309 308 308 308 308 309 312 314 312 311 312 313 311 309 307 306 307 307 307 307 307 307 307 307 307 306 305 304 304 302 300 298 296 294 292
222 226 231 228 224 231 244 253 258 261 264 265 266 268 269 270 274 280 284 285 287 290 289 287 287 290 294 295 297 301 307 309 309 311 312 310 308 307 307 307 308 307 307 308 309 310 311 311 310 309 308 307 308 309 310 312 314 313 312 312 312 311 310 309 309 309 310 311 312 312 312 312 312 311 309 307 305 304 302 300 298 296 294 293 292
207 213 223 233 242 250 252 255 259 261 262 264 266 268 269 269 272 279 285 288 291 291 288 287 288 290 291 292 294 300 306 307 308 309 308 306 305 305 305 306 306 306 307 308 309 310 311 311 309 308 307 308 309 310 311 313 313 312 312 312 312 311 312 313 313 314 315 316 315 315 315 314 313 312 309 306 304 303 302 300 298 296 295 293 292
208 215 225 238 249 255 257 260 262 261 263 266 269 271 273 273 276 281 284 287 290 290 290 292 293 290 289 291 296 302 306 306 306 307 305 303 303 304 304 305 306 307 308 308 310 311 310 310 309 308 308 308 309 310 311 312 311 311 312 312 313 315 317 318 319 320 320 320 319 318 316 316 315 313 310 309 307 305 303 301 299 297 296 295 294
223 229 236 244 249 253 257 258 259 260 264 268 270 272 273 273 276 281 283 286 289 291 294 296 295 291 292 296 299 302 304 305 305 304 302 301 302 303 304 305 307 308 309 309 310 310 310 310 309 308 307 307 308 309 310 310 311 312 314 315 317 321 323 323 324 325 324 323 322 321 319 318 316 314 313 311 309 306 304 302 300 298 297 296 296
236 239 243 246 249 251 254 256 258 262 264 266 268 270 272 274 278 281 282 284 287 290 292 294 294 293 295 298 301 303 304 304 303 301 300 301 302 303 305 307 308 309 309 309 310 311 311 310 308 307 306 307 309 310 310 310 312 315 317 319 323 326 327 326 327 327 327 327 326 324 322 319 317 314 312 310 308 306 304 302 301 299 298 297 298
244 245 246 247 249 251 254 257 260 262 264 266 268 270 273 276 279 280 281 284 287 287 288 291 293 293 295 299 302 304 303 302 301 300 300 301 303 305 307 308 309 309 309 310 312 312 311 308 306 304 305 308 310 311 310 310 314 317 320 322 325 328 328 328 329 330 330 330 329 326 323 320 317 314 312 310 309 307 306 304 302 301 300 300 300
246 247 250 251 253 255 257 259 261 263 264 266 268 271 275 277 278 280 283 284 283 282 285 290 291 293 297 301 303 302 301 300 300 299 301 303 305 307 308 309 309 310 310 312 313 312 309 305 303 304 307 309 310 310 310 312 316 319 322 325 327 329 330 332 334 335 334 333 332 330 327 323 320 317 315 313 311 309 307 306 304 303 303 302 302
248 250 252 253 255 258 260 261 263 265 266 267 269 271 274 276 280 284 286 283 278 277 283 288 291 295 298 300 299 299 299 298 298 300 302 304 306 308 309 309 309 310 311 312 311 309 305 303 303 305 308 309 309 309 311 314 317 320 323 326 328 329 332 334 335 336 337 336 335 334 332 329 327 324 321 318 314 311 309 307 306 306 305 305 305
249 251 253 254 255 257 259 262 265 266 267 269 272 274 276 279 283 285 285 283 281 282 286 290 293 295 297 297 297 297 297 297 298 301 303 305 307 308 309 309 309 310 310 310 308 305 303 303 304 306 308 307 306 308 312 315 317 320 323 327 328 329 332 333 334 336 337 337 337 336 335 333 332 330 327 323 319 316 313 311 310 310 309 309 309
249 251 253 255 255 256 257 260 263 266 269 271 274 276 278 280 282 282 283 286 288 289 291 293 293 294 294 295 295 296 296 297 300 302 304 306 307 308 308 309 309 309 309 308 306 304 303 304 305 306 305 304 305 308 312 314 316 319 323 326 327 328 330 332 333 334 336 337 337 337 337 337 335 332 329 326 322 319 316 314 313 312 312 311 310
250 253 256 259 261 263 263 263 264 267 269 271 274 276 276 276 277 280 284 288 289 290 291 292 291 292 293 294 295 296 297 299 301 303 305 307 307 308 308 308 307 307 307 306 303 302 302 303 303 303 301 301 303 306 309 312 315 319 322 324 325 326 328 330 331 332 334 335 336 337 337 337 336 333 330 326 323 320 318 316 315 314 313 313 312
257 260 261 263 265 267 268 268 268 269 269 270 271 272 272 273 276 281 285 286 287 289 290 289 290 290 292 293 295 296 297 299 301 304 306 307 307 307 307 306 305 305 305 304 302 301 301 301 300 298 298 298 301 305 308 311 314 318 319 321 323 325 327 329 330 331 332 334 335 336 336 336 335 334 332 329 325 323 321 319 318 318 317 316 315
262 264 266 266 266 266 267 268 269 270 269 267 266 268 274 278 280 281 283 284 286 287 287 286 287 289 291 292 294 296 298 300 302 304 306 306 306 306 305 304 304 305 305 304 302 301 300 298 296 295 295 296 299 303 307 309 313 315 318 320 322 324 326 327 328 329 331 332 333 333 334 334 335 334 334 332 330 327 325 324 323 323 322 322 321
262 263 265 266 267 267 269 270 268 264 259 260 267 275 282 284 282 281 283 284 285 285 285 285 287 289 291 293 294 296 299 302 303 304 304 304 305 305 304 304 304 304 304 304 302 299 297 296 294 292 292 293 297 302 305 308 311 314 316 318 320 322 324 325 326 328 329 330 330 331 331 332 333 334 334 334 333 331 330 330 329 330 330 330 330
261 262 264 267 269 268 267 265 262 258 260 269 277 281 282 281 281 283 285 286 285 285 286 286 287 289 291 293 295 298 300 302 303 303 303 304 305 304 303 304 304 302 302 302 300 295 293 292 289 287 288 291 294 299 303 306 309 312 314 316 318 321 323 323 325 326 327 327 328 328 329 330 332 333 335 336 335 334 334 334 335 336 337 338 340
263 264 265 266 266 262 257 256 258 263 270 276 279 278 276 278 281 284 285 285 284 284 285 286 288 290 292 294 296 298 299 300 301 302 303 303 303 302 302 303 302 299 298 298 296 291 288 286 283 281 284 287 291 295 301 304 307 308 310 314 317 320 321 322 323 325 326 326 326 326 328 329 330 332 334 336 337 336 336 337 337 338 341 345 348
267 266 264 261 258 257 259 265 270 272 273 273 274 276 279 281 281 282 282 282 283 283 284 286 289 292 293 295 296 297 297 298 299 300 300 300 300 299 299 300 298 295 294 294 291 287 284 281 278 278 281 284 287 292 297 301 303 305 308 312 316 317 318 319 321 323 324 324 324 325 326 328 329 331 333 335 337 337 337 336 336 337 340 345 349
266 264 259 256 257 261 265 265 264 266 270 272 275 278 279 279 279 279 280 281 281 283 285 288 290 291 293 294 295 295 295 296 298 299 299 298 298 298 297 297 296 294 293 291 288 283 278 275 273 274 277 280 284 289 294 299 302 305 309 312 314 315 316 318 320 322 322 323 323 323 325 327 328 330 332 334 336 337 337 335 334 334 336 341 346
266 267 263 261 263 267 266 260 256 261 268 273 275 276 278 278 278 279 281 281 282 284 286 289 290 291 292 292 292 293 294 295 297 297 297 296 296 296 296 295 293 291 289 287 284 278 273 270 271 272 274 277 282 288 294 298 302 305 309 311 313 315 316 318 319 320 320 321 321 322 323 325 327 329 330 332 334 336 337 335 333 331 333 337 342
260 265 268 270 270 270 269 267 266 268 270 272 275 278 279 279 279 280 281 282 283 285 287 288 289 289 289 290 291 292 293 294 295 294 294 294 295 295 295 294 291 288 285 283 279 273 268 269 272 274 276 279 284 289 294 298 301 304 307 309 311 313 314 316 317 317 318 319 320 321 322 324 325 327 329 330 332 334 336 336 333 330 330 333 338
252 258 265 270 270 268 270 272 274 275 276 276 277 278 278 277 279 281 282 282 283 285 285 286 286 286 286 287 289 290 291 292 292 292 292 293 294 294 294 292 288 285 283 279 273 267 265 266 269 274 277 280 284 288 291 295 298 302 304 306 308 310 312 313 314 316 317 318 319 320 321 323 324 326 327 329 330 332 334 335 334 331 329 330 334
256 260 264 264 263 265 270 273 274 275 276 276 276 277 278 279 280 281 280 280 281 281 282 282 283 284 284 285 287 288 288 288 288 289 290 291 291 292 292 289 284 280 278 274 269 265 264 264 266 270 274 277 281 284 287 291 295 299 301 303 305 307 309 311 312 314 316 317 319 320 321 322 323 325 326 327 328 329 331 333 334 332 330 328 330
Height
5896 5897 5897 5897 5898 5900 5902 5903 5906 5908 5909 5910 5910 5910 5910 5910 5910 5910 5910 5911 5910 5910 5910 5910 5909 5908 5907 5906 5905 5904 5903 5902 5901 5900 5899 5897 5895 5893 5892 5890 5888 5886 5884 5882 5881 5879 5877 5875 5873 5872 5871 5870 5868 5867 5865 5864 5862 5860 5859 5857 5855 5854 5854 5854 5854 5853 5852 5851 5851 5850 5850 5849 5848 5847 5847 5848 5848 5848 5849 5848 5847 5847 5846 5845 5845
5893 5894 5894 5895 5896 5898 5900 5902 5904 5906 5906 5907 5908 5908 5908 5908 5908 5908 5908 5909 5908 5908 5907 5907 5907 5906 5905 5905 5904 5903 5902 5901 5900 5898 5897 5895 5894 5892 5890 5888 5886 5884 5882 5880 5878 5877 5875 5873 5872 5870 5869 5867 5866 5864 5862 5860 5859 5857 5855 5853 5852 5851 5850 5850 5850 5849 5847 5846 5845 5845 5845 5844 5844 5843 5843 5843 5843 5843 5843 5843 5842 5842 5841 5841 5840
5891 5892 5892 5893 5895 5896 5898 5900 5902 5903 5904 5905 5905 5906 5906 5906 5906 5906 5906 5906 5906 5906 5905 5905 5904 5904 5903 5903 5902 5902 5901 5900 5898 5896 5895 5893 5891 5890 5888 5886 5884 5881 5879 5877 5876 5874 5872 5871 5869 5868 5866 5865 5863 5861 5859 5857 5856 5854 5852 5850 5849 5847 5846 5845 5844 5844 5843 5842 5841 5840 5840 5840 5840 5839 5839 5838 5838 5838 5837 5837 5836 5836 5836 5836 5835
5888 5889 5890 5892 5893 5895 5897 5898 5900 5901 5902 5903 5903 5904 5904 5904 5904 5904 5904 5904 5904 5904 5904 5903 5902 5902 5902 5901 5901 5900 5899 5898 5896 5894 5892 5890 5888 5887 5885 5883 5881 5879 5877 5874 5872 5870 5868 5866 5865 5863 5862 5861 5859 5857 5856 5854 5852 5851 5849 5847 5845 5843 5842 5841 5840 5839 5840 5839 5837 5836 5836 5835 5835 5835 5834 5833 5833 5832 5832 5831 5830 5829 5828 5828 5828
5886 5887 5888 5890 5892 5893 5895 5896 5898 5898 5899 5900 5901 5901 5902 5902 5902 5902 5902 5902 5902 5902 5902 5901 5901 5901 5900 5900 5899 5898 5897 5895 5893 5891 5889 5887 5885 5883 5882 5880 5877 5875 5873 5871 5869 5866 5864 5862 5860 5859 5858 5858 5856 5854 5852 5851 5849 5847 5846 5843 5841 5839 5838 5837 5836 5835 5835 5835 5834 5832 5831 5830 5830 5830 5829 5827 5827 5827 5826 5825 5824 5822 5821 5820 5820
5884 5885 5886 5888 5890 5891 5893 5894 5895 5896 5897 5897 5898 5899 5899 5899 5899 5900 5900 5900 5900 5900 5900 5900 5899 5899 5898 5897 5896 5895 5893 5891 5889 5887 5886 5884 5882 5880 5878 5876 5874 5872 5870 5867 5865 5863 5861 5860 5858 5856 5855 5854 5853 5851 5849 5847 5846 5844 5842 5840 5838 5836 5834 5833 5832 5831 5830 5829 5829 5828 5827 5826 5826 5826 5824 5822 5821 5821 5820 5819 5818 5816 5815 5814 5813
5882 5882 5883 5886 5888 5889 5890 5891 5893 5894 5894 5895 5896 5896 5896 5897 5897 5897 5897 5897 5897 5898 5898 5898 5897 5896 5895 5894 5893 5891 5890 5888 5886 5884 5882 5880 5878 5876 5874 5872 5870 5868 5866 5864 5862 5860 5858 5857 5855 5853 5852 5851 5849 5847 5845 5843 5842 5840 5839 5836 5834 5833 5831 5830 5828 5827 5825 5824 5824 5823 5822 5821 5821 5820 5819 5817 5816 5816 5815 5814 5813 5811 5809 5808 5807
5880 5879 5880 5883 5885 5887 5888 5889 5890 5891 5891 5892 5893 5893 5894 5894 5894 5894 5894 5894 5894 5894 5894 5894 5893 5892 5891 5890 5889 5888 5886 5885 5883 5881 5879 5876 5874 5872 5870 5868 5866 5864 5862 5861 5859 5856 5854 5853 5851 5850 5849 5848 5846 5843 5841 5839 5838 5837 5835 5834 5832 5830 5828 5827 5825 5824 5822 5821 5820 5819 5818 5817 5816 5815 5814 5813 5812 5811 5809 5807 5807 5806 5804 5803 5802
5877 5877 5878 5880 5882 5884 5885 5886 5887 5888 5889 5889 5890 5891 5891 5891 5891 5892 5891 5891 5891 5891 5890 5890 5889 5888 5887 5886 5885 5884 5883 5882 5880 5878 5875 5872 5870 5868 5866 5864 5862 5860 5858 5857 5855 5853 5850 5849 5847 5846 5845 5844 5842 5840 5838 5836 5834 5833 5832 5830 5828 5826 5824 5822 5821 5820 5818 5817 5816 5815 5814 5813 5812 5810 5808 5807 5806 5805 5803 5802 5801 5800 5799 5798 5797
5875 5874 5875 5877 5879 5880 5882 5883 5884 5884 5886 5887 5887 5888 5888 5889 5889 5889 5888 5888 5887 5887 5887 5886 5885 5884 5883 5883 5882 5881 5880 5878 5876 5874 5871 5868 5866 5864 5862 5860 5858 5856 5854 5853 5851 5849 5846 5845 5843 5842 5841 5840 5838 5836 5834 5833 5831 5830 5828 5827 5825 5823 5821 5819 5817 5815 5814 5812 5811 5810 5809 5808 5806 5804 5803 5802 5800 5799 5797 5795 5794 5793 5792 5791 5791
5872 5871 5872 5874 5875 5877 5878 5880 5880 5881 5882 5883 5884 5885 5885 5885 5885 5885 5885 5884 5884 5884 5884 5883 5882 5881 5880 5879 5879 5878 5877 5875 5873 5870 5867 5864 5861 5859 5857 5855 5854 5852 5850 5848 5847 5844 5842 5840 5839 5838 5838 5836 5835 5833 5831 5829 5828 5826 5825 5823 5821 5819 5817 5815 5813 5812 5810 5808 5807 5805 5804 5802 5800 5798 5797 5795 5793 5792 5789 5787 5786 5785 5784 5783 5783
5869 5869 5869 5870 5871 5873 5875 5876 5877 5877 5879 5879 5880 5881 5881 5881 5881 5881 5881 5881 5880 5880 5880 5879 5879 5878 5877 5876 5875 5874 5872 5870 5868 5866 5863 5860 5858 5855 5853 5851 5849 5847 5846 5844 5842 5840 5838 5836 5835 5835 5834 5833 5831 5830 5828 5826 5824 5823 5821 5819 5817 5814 5812 5811 5809 5807 5806 5804 5802 5800 5797 5795 5793 5791 5789 5787 5785 5784 5782 5780 5778 5777 5776 5775 5775
5865 5865 5865 5866 5868 5869 5870 5872 5873 5874 5875 5876 5876 5877 5877 5877 5877 5877 5877 5877 5876 5876 5876 5876 5875 5874 5873 5872 5870 5869 5868 5866 5865 5861 5857 5855 5855 5853 5850 5847 5845 5843 5841 5840 5838 5836 5834 5833 5832 5832 5830 5829 5827 5826 5824 5823 5821 5819 5817 5815 5812 5810 5808 5806 5804 5803 5800 5798 5796 5793 5790 5787 5786 5784 5781 5779 5778 5777 5775 5774 5772 5770 5769 5767 5766
5861 5862 5862 5862 5863 5865 5865 5867 5868 5869 5871 5871 5872 5872 5873 5873 5873 5872 5872 5872 5872 5872 5873 5872 5872 5871 5870 5868 5867 5866 5864 5863 5862 5859 5853 5850 5851 5850 5847 5844 5841 5839 5838 5836 5835 5833 5831 5830 5829 5828 5827 5825 5823 5822 5820 5819 5817 5815 5813 5810 5808 5806 5803 5801 5799 5797 5795 5792 5790 5787 5784 5781 5779 5777 5775 5772 5771 5770 5768 5767 5765 5764 5762 5760 5759
5856 5857 5858 5858 5859 5860 5860 5862 5863 5864 5866 5867 5867 5868 5868 5868 5868 5868 5868 5868 5868 5868 5868 5868 5868 5867 5866 5865 5863 5862 5861 5860 5859 5856 5851 5848 5847 5845 5843 5840 5838 5836 5835 5833 5832 5830 5828 5827 5825 5824 5822 5821 5819 5818 5817 5815 5812 5810 5807 5805 5802 5800 5797 5795 5793 5791 5788 5786 5784 5781 5778 5776 5773 5771 5769 5767 5765 5763 5761 5760 5759 5757 5755 5753 5752
5851 5852 5854 5854 5854 5855 5855 5856 5858 5859 5861 5861 5862 5863 5863 5863 5864 5863 5864 5864 5864 5864 5864 5864 5864 5863 5862 5861 5859 5858 5857 5856 5854 5852 5849 5846 5843 5840 5839 5837 5835 5834 5832 5831 5829 5827 5825 5823 5822 5820 5818 5817 5815 5814 5812 5810 5807 5805 5802 5800 5797 5794 5791 5789 5786 5784 5782 5779 5777 5775 5772 5770 5768 5765 5763 5761 5759 5756 5754 5753 5751 5749 5747 5746 5745
5846 5847 5849 5850 5850 5850 5850 5850 5852 5853 5855 5856 5857 5858 5858 5858 5859 5859 5859 5860 5859 5859 5859 5859 5859 5859 5858 5856 5855 5853 5851 5850 5849 5847 5845 5843 5839 5837 5835 5833 5831 5830 5829 5827 5826 5824 5822 5820 5818 5816 5814 5812 5811 5809 5807 5805 5802 5800 5797 5794 5792 5789 5786 5783 5780 5778 5775 5772 5770 5768 5766 5763 5761 5759 5757 5754 5752 5750 5748 5746 5744 5742 5741 5739 5737
5840 5842 5843 5844 5844 5844 5844 5844 5845 5847 5848 5850 5851 5851 5852 5853 5853 5854 5854 5855 5855 5855 5855 5855 5855 5854 5853 5852 5851 5849 5846 5845 5844 5842 5840 5838 5835 5833 5831 5829 5828 5826 5825 5823 5822 5820 5818 5816 5814 5812 5809 5808 5806 5804 5801 5799 5796 5794 5791 5789 5786 5784 5781 5778 5775 5772 5769 5766 5764 5761 5759 5756 5754 5753 5750 5748 5745 5743 5742 5740 5738 5735 5734 5732 5730
5835 5836 5837 5838 5838 5838 5838 5839 5839 5840 5842 5843 5844 5845 5846 5847 5848 5849 5849 5850 5850 5851 5851 5851 5850 5850 5849 5848 5847 5844 5842 5840 5839 5838 5835 5833 5831 5829 5827 5825 5824 5822 5820 5819 5817 5815 5814 5812 5810 5807 5805 5803 5801 5798 5795 5793 5791 5788 5785 5783 5780 5778 5775 5772 5769 5766 5763 5760 5758 5755 5752 5750 5748 5746 5744 5741 5739 5736 5734 5733 5731 5729 5727 5725 5723
5829 5830 5831 5831 5831 5832 5833 5833 5834 5835 5837 5838 5839 5840 5841 5843 5844 5844 5845 5845 5846 5846 5846 5846 5846 5845 5844 5843 5841 5839 5837 5836 5834 5832 5830 5829 5826 5824 5822 5820 5819 5817 5815 5814 5812 5810 5808 5806 5804 5803 5801 5798 5796 5793 5790 5787 5784 5782 5779 5776 5774 5771 5768 5765 5762 5760 5757 5755 5752 5749 5746 5744 5742 5740 5737 5734 5731 5728 5727 5725 5723 5722 5720 5719 5717
5821 5822 5823 5825 5826 5826 5827 5828 5830 5831 5833 5834 5835 5836 5838 5839 5839 5839 5840 5840 5840 5841 5841 5841 5840 5839 5839 5838 5836 5834 5832 5831 5829 5827 5825 5823 5821 5819 5817 5816 5814 5812 5811 5809 5807 5805 5803 5801 5799 5797 5796 5793 5790 5787 5784 5781 5778 5776 5773 5770 5768 5765 5762 5759 5756 5753 5751 5749 5746 5743 5740 5738 5735 5733 5730 5728 5725 5722 5720 5718 5717 5716 5714 5712 5710
5814 5816 5818 5820 5821 5822 5823 5825 5827 5828 5829 5830 5832 5833 5834 5834 5835 5835 5835 5835 5835 5835 5836 5835 5835 5834 5834 5833 5831 5830 5828 5826 5824 5822 5820 5818 5816 5814 5813 5811 5809 5808 5806 5805 5803 5800 5798 5796 5794 5791 5789 5787 5784 5781 5779 5776 5773 5770 5768 5765 5762 5759 5756 5753 5750 5747 5745 5742 5740 5737 5734 5732 5729 5726 5724 5721 5719 5716 5714 5712 5711 5709 5707 5706 5704
5810 5812 5814 5815 5817 5818 5820 5821 5823 5823 5824 5825 5826 5828 5829 5829 5830 5831 5830 5830 5830 5830 5830 5830 5830 5830 5830 5829 5827 5825 5823 5821 5819 5817 5815 5813 5811 5810 5808 5807 5805 5803 5802 5800 5798 5795 5793 5790 5788 5786 5784 5781 5779 5776 5773 5770 5768 5765 5762 5760 5757 5753 5750 5747 5745 5742 5739 5736 5734 5731 5729 5726 5723 5720 5718 5715 5713 5711 5709 5707 5704 5703 5701 5699 5698
5806 5807 5808 5810 5812 5813 5815 5816 5817 5817 5818 5819 5820 5822 5823 5825 5826 5826 5826 5826 5825 5825 5825 5825 5826 5826 5825 5824 5823 5821 5818 5815 5813 5811 5810 5808 5807 5805 5804 5802 5800 5799 5797 5795 5792 5790 5788 5785 5783 5781 5778 5776 5773 5770 5768 5765 5762 5760 5757 5754 5751 5748 5745 5742 5739 5736 5733 5730 5728 5726 5723 5721 5718 5715 5713 5710 5708 5706 5704 5701 5699 5697 5696 5694 5692
5799 5799 5800 5802 5804 5806 5809 5810 5810 5810 5810 5812 5814 5817 5818 5820 5821 5822 5822 5821 5821 5820 5820 5820 5821 5821 5820 5819 5817 5815 5813 5810 5807 5806 5805 5804 5802 5801 5799 5797 5795 5793 5792 5789 5787 5785 5782 5780 5778 5775 5773 5770 5768 5765 5762 5759 5756 5754 5751 5749 5746 5743 5739 5736 5734 5730 5727 5725 5723 5721 5718 5715 5712 5710 5708 5705 5703 5701 5698 5696 5694 5693 5691 5690 5688
5792 5792 5792 5794 5797 5799 5800 5800 5800 5801 5803 5805 5808 5811 5813 5814 5816 5816 5816 5816 5815 5814 5814 5815 5815 5815 5814 5813 5811 5809 5806 5804 5802 5801 5800 5799 5797 5796 5794 5792 5790 5788 5786 5784 5782 5779 5777 5775 5773 5770 5768 5765 5762 5759 5756 5753 5751 5749 5746 5743 5740 5737 5734 5731 5728 5725 5721 5719 5717 5715 5712 5709 5706 5704 5702 5700 5697 5696 5694 5691 5690 5688 5687 5686 5684
5789 5791 5793 5794 5795 5796 5798 5798 5799 5799 5799 5801 5803 5806 5808 5809 5810 5810 5810 5810 5810 5810 5809 5809 5809 5809 5808 5807 5805 5802 5800 5799 5798 5796 5795 5793 5792 5790 5788 5786 5785 5783 5780 5778 5777 5775 5772 5770 5768 5765 5763 5760 5756 5754 5750 5748 5746 5744 5741 5738 5735 5731 5729 5726 5722 5719 5716 5714 5711 5708 5706 5703 5700 5698 5696 5694 5692 5690 5688 5687 5685 5684 5683 5682 5681
5784 5790 5793 5793 5792 5794 5796 5797 5797 5796 5796 5798 5800 5802 5803 5804 5805 5805 5805 5805 5805 5805 5805 5804 5803 5803 5803 5802 5800 5797 5795 5794 5793 5791 5790 5788 5787 5785 5783 5781 5779 5777 5775 5773 5771 5770 5768 5765 5763 5760 5757 5754 5751 5748 5745 5743 5741 5739 5736 5733 5729 5726 5724 5720 5717 5714 5712 5709 5706 5703 5701 5698 5696 5694 5691 5689 5687 5685 5684 5682 5681 5680 5679 5678 5677
5778 5784 5785 5783 5784 5787 5789 5791 5791 5792 5793 5796 5797 5798 5799 5800 5800 5800 5800 5800 5800 5800 5799 5798 5797 5796 5796 5796 5795 5791 5789 5788 5788 5786 5784 5783 5782 5780 5778 5776 5774 5772 5770 5768 5766 5764 5762 5760 5757 5754 5751 5748 5745 5743 5740 5738 5736 5734 5731 5728 5725 5722 5719 5716 5713 5710 5708 5705 5702 5699 5697 5694 5691 5689 5687 5685 5683 5681 5680 5679 5678 5677 5676 5675 5674
5771 5774 5775 5774 5777 5781 5784 5786 5787 5789 5790 5792 5793 5793 5793 5793 5793 5794 5795 5795 5795 5794 5793 5792 5791 5789 5789 5789 5789 5787 5784 5782 5782 5781 5779 5778 5776 5774 5772 5771 5769 5766 5764 5762 5760 5758 5756 5754 5752 5749 5746 5743 5740 5738 5735 5733 5731 5728 5726 5723 5721 5718 5716 5713 5710 5707 5704 5701 5698 5695 5692 5689 5687 5684 5683 5681 5679 5677 5676 5675 5674 5674 5673 5671 5670
5761 5762 5765 5769 5772 5776 5779 5781 5783 5785 5786 5786 5787 5788 5788 5788 5788 5789 5790 5790 5790 5788 5787 5786 5785 5784 5783 5783 5783 5782 5779 5777 5777 5777 5775 5773 5771 5769 5767 5765 5763 5761 5758 5756 5754 5753 5751 5749 5746 5744 5741 5738 5736 5733 5730 5729 5726 5724 5722 5720 5717 5714 5712 5709 5706 5703 5700 5697 5694 5691 5688 5685 5683 5681 5679 5677 5676 5674 5673 5672 5671 5670 5669 5668 5666
5751 5754 5759 5764 5768 5771 5774 5777 5778 5779 5780 5780 5781 5782 5783 5783 5783 5784 5785 5786 5785 5783 5781 5780 5779 5779 5778 5777 5777 5777 5775 5772 5771 5770 5769 5768 5766 5764 5762 5760 5758 5756 5753 5751 5749 5747 5746 5744 5741 5739 5736 5733 5731 5729 5726 5724 5722 5720 5718 5716 5713 5711 5708 5704 5701 5699 5696 5693 5690 5687 5685 5682 5679 5677 5676 5674 5672 5671 5670 5668 5667 5666 5665 5664 5662
5746 5751 5755 5760 5764 5767 5769 5771 5772 5773 5774 5775 5775 5776 5777 5778 5778 5779 5779 5779 5778 5777 5776 5775 5774 5773 5772 5772 5771 5772 5770 5768 5766 5764 5763 5761 5760 5758 5756 5754 5752 5750 5748 5746 5744 5742 5740 5738 5736 5734 5731 5729 5728 5725 5723 5720 5718 5716 5714 5712 5709 5707 5704 5700 5697 5695 5692 5689 5687 5684 5681 5678 5676 5674 5672 5670 5669 5668 5666 5665 5664 5662 5661 5660 5658
5744 5748 5752 5756 5759 5761 5763 5765 5766 5768 5769 5770 5770 5770 5771 5772 5773 5774 5773 5773 5772 5772 5771 5771 5769 5768 5767 5766 5766 5766 5765 5764 5762 5760 5758 5756 5754 5753 5751 5749 5747 5745 5743 5742 5740 5738 5736 5733 5731 5729 5727 5725 5723 5721 5719 5716 5714 5712 5710 5707 5705 5703 5700 5697 5695 5692 5689 5686 5683 5680 5678 5675 5673 5671 5670 5668 5666 5665 5663 5662 5660 5659 5658 5656 5654
5743 5746 5750 5753 5755 5757 5759 5761 5762 5763 5764 5765 5766 5766 5767 5767 5768 5768 5768 5767 5767 5766 5766 5765 5764 5762 5762 5761 5761 5760 5759 5758 5757 5755 5753 5752 5750 5748 5746 5745 5743 5741 5739 5738 5736 5733 5731 5729 5726 5724 5722 5721 5719 5717 5714 5712 5710 5708 5706 5704 5702 5700 5698 5695 5692 5690 5687 5684 5681 5678 5675 5673 5671 5669 5667 5665 5663 5662 5660 5659 5657 5656 5654 5653 5651
5741 5744 5747 5749 5750 5753 5755 5757 5757 5758 5759 5760 5761 5762 5762 5762 5762 5762 5762 5761 5761 5761 5761 5760 5759 5758 5757 5756 5755 5754 5753 5752 5751 5750 5748 5747 5745 5743 5742 5740 5738 5736 5734 5733 5731 5729 5727 5724 5722 5720 5718 5717 5715 5713 5711 5709 5707 5705 5703 5701 5699 5697 5695 5693 5690 5687 5685 5682 5679 5676 5674 5671 5669 5667 5665 5663 5661 5659 5657 5656 5654 5652 5651 5649 5647
5738 5741 5743 5744 5746 5749 5751 5752 5753 5753 5754 5754 5754 5755 5756 5756 5756 5757 5756 5755 5754 5755 5755 5755 5754 5753 5752 5751 5750 5749 5748 5747 5746 5744 5743 5741 5740 5738 5737 5735 5733 5732 5730 5728 5727 5725 5722 5720 5718 5716 5714 5713 5711 5710 5708 5706 5704 5703 5701 5699 5697 5695 5693 5690 5688 5685 5682 5680 5677 5674 5671 5669 5666 5664 5662 5660 5658 5656 5654 5653 5651 5649 5647 5645 5643
5735 5737 5738 5740 5741 5744 5746 5747 5748 5749 5749 5748 5748 5749 5750 5750 5751 5751 5750 5749 5749 5749 5749 5749 5748 5747 5746 5745 5745 5744 5743 5741 5740 5739 5737 5736 5734 5733 5732 5731 5730 5728 5726 5724 5722 5720 5718 5715 5713 5712 5710 5709 5708 5706 5705 5704 5702 5700 5699 5697 5695 5693 5690 5688 5685 5683 5680 5677 5675 5672 5669 5667 5664 5662 5660 5658 5655 5653 5651 5650 5648 5646 5644 5642 5640
5731 5733 5734 5736 5737 5739 5740 5741 5742 5742 5743 5743 5743 5743 5743 5744 5745 5746 5745 5744 5744 5744 5744 5743 5743 5742 5741 5740 5739 5739 5737 5736 5735 5734 5732 5731 5730 5728 5728 5727 5725 5724 5722 5720 5718 5715 5713 5711 5709 5708 5707 5706 5705 5703 5702 5701 5700 5698 5697 5695 5693 5691 5689 5686 5683 5681 5678 5675 5673 5670 5667 5664 5662 5659 5657 5655 5653 5651 5649 5647 5645 5643 5641 5639 5636
5727 5728 5730 5732 5732 5732 5733 5734 5735 5736 5736 5736 5736 5737 5737 5739 5740 5740 5739 5739 5739 5739 5738 5738 5737 5736 5736 5735 5734 5733 5732 5731 5730 5729 5727 5726 5725 5724 5723 5721 5720 5719 5718 5717 5714 5712 5709 5707 5706 5705 5703 5702 5702 5701 5700 5699 5697 5696 5694 5692 5691 5689 5687 5684 5682 5679 5676 5674 5671 5668 5665 5662 5660 5657 5655 5653 5651 5648 5646 5644 5642 5640 5638 5636 5633
5723 5724 5725 5727 5727 5727 5727 5727 5728 5728 5728 5729 5730 5730 5732 5733 5734 5735 5734 5733 5733 5733 5732 5732 5731 5731 5730 5730 5729 5728 5727 5726 5725 5724 5723 5721 5720 5719 5718 5717 5715 5714 5713 5712 5710 5708 5706 5704 5703 5702 5701 5700 5699 5699 5698 5696 5695 5693 5692 5690 5688 5686 5684 5681 5679 5677 5674 5672 5669 5666 5664 5661 5658 5656 5653 5651 5648 5646 5644 5641 5639 5637 5635 5632 5630
5720 5720 5720 5720 5720 5721 5721 5721 5721 5720 5720 5722 5723 5724 5726 5727 5729 5729 5729 5728 5727 5727 5726 5726 5726 5725 5725 5724 5724 5723 5722 5721 5720 5719 5718 5717 5716 5714 5713 5711 5710 5710 5708 5707 5705 5703 5702 5701 5700 5699 5698 5697 5697 5696 5695 5694 5692 5691 5689 5687 5685 5683 5681 5679 5677 5675 5672 5670 5667 5665 5662 5660 5657 5654 5652 5649 5646 5643 5641 5639 5637 5634 5632 5630 5627
5715 5715 5715 5714 5713 5714 5715 5717 5716 5715 5715 5716 5718 5719 5720 5721 5722 5723 5723 5722 5721 5721 5720 5720 5720 5720 5719 5718 5718 5718 5717 5716 5715 5714 5713 5712 5711 5710 5708 5706 5705 5705 5704 5702 5700 5699 5698 5697 5696 5696 5695 5695 5694 5693 5692 5691 5690 5688 5687 5685 5683 5681 5679 5677 5675 5672 5670 5668 5666 5663 5661 5658 5656 5653 5650 5647 5644 5641 5639 5637 5634 5632 5630 5628 5625
5709 5709 5709 5709 5708 5708 5710 5711 5711 5710 5709 5711 5712 5714 5714 5714 5715 5716 5716 5715 5714 5714 5713 5713 5713 5714 5713 5713 5713 5712 5712 5711 5711 5709 5708 5707 5706 5705 5704 5702 5701 5699 5699 5698 5696 5695 5694 5693 5693 5693 5692 5692 5691 5690 5689 5688 5687 5685 5684 5682 5681 5679 5677 5674 5672 5670 5668 5666 5664 5661 5659 5657 5654 5652 5649 5646 5643 5640 5637 5635 5633 5631 5629 5626 5624
5703 5704 5704 5703 5702 5702 5704 5705 5705 5705 5705 5705 5706 5707 5708 5707 5708 5708 5708 5708 5707 5708 5708 5707 5707 5707 5708 5708 5707 5707 5706 5706 5706 5705 5704 5703 5702 5701 5700 5698 5697 5695 5693 5693 5692 5691 5691 5690 5690 5690 5690 5689 5688 5687 5687 5685 5684 5683 5681 5680 5678 5676 5674 5672 5670 5668 5666 5664 5662 5659 5657 5655 5653 5650 5647 5644 5641 5639 5636 5634 5632 5630 5628 5625 5623
5697 5697 5698 5697 5697 5698 5699 5700 5700 5700 5700 5699 5700 5701 5702 5702 5702 5702 5702 5702 5702 5702 5702 5703 5703 5702 5703 5703 5702 5702 5701 5701 5701 5701 5701 5700 5699 5697 5696 5695 5694 5692 5690 5689 5689 5688 5687 5687 5687 5687 5687 5686 5685 5684 5683 5682 5681 5680 5678 5677 5676 5674 5672 5670 5668 5666 5664 5662 5659 5657 5655 5653 5651 5648 5646 5643 5640 5637 5635 5633 5631 5629 5627 5624 5622
5691 5691 5692 5692 5692 5693 5695 5696 5695 5694 5694 5694 5695 5696 5696 5697 5697 5696 5696 5697 5698 5697 5697 5698 5698 5698 5698 5698 5697 5697 5696 5696 5696 5696 5696 5695 5694 5693 5692 5691 5690 5688 5687 5686 5685 5684 5684 5684 5684 5684 5684 5683 5682 5681 5680 5679 5678 5677 5675 5674 5673 5671 5669 5667 5665 5663 5661 5659 5657 5655 5653 5651 5649 5647 5644 5642 5639 5636 5634 5632 5630 5628 5626 5623 5621
5684 5684 5685 5687 5687 5687 5688 5690 5691 5691 5690 5690 5690 5690 5691 5691 5691 5692 5692 5692 5692 5693 5693 5693 5693 5693 5693 5693 5693 5692 5692 5692 5691 5691 5690 5690 5689 5689 5688 5687 5686 5684 5683 5682 5682 5681 5681 5681 5680 5680 5681 5680 5679 5678 5677 5676 5675 5673 5672 5670 5669 5667 5666 5664 5662 5661 5659 5657 5655 5653 5651 5649 5647 5645 5642 5640 5638 5635 5633 5631 5629 5627 5625 5623 5620
5679 5678 5679 5681 5681 5681 5682 5684 5685 5685 5685 5685 5684 5685 5685 5686 5686 5687 5687 5686 5687 5688 5689 5689 5689 5688 5687 5687 5688 5688 5687 5687 5687 5686 5686 5685 5684 5684 5683 5682 5681 5680 5679 5678 5678 5678 5678 5677 5677 5677 5677 5677 5676 5675 5673 5672 5671 5670 5669 5667 5666 5664 5663 5661 5660 5658 5656 5655 5653 5651 5649 5647 5645 5643 5641 5638 5636 5634 5632 5629 5628 5626 5624 5622 5620
5677 5676 5676 5677 5677 5677 5677 5678 5679 5679 5679 5679 5679 5679 5680 5681 5681 5682 5682 5681 5681 5682 5683 5684 5684 5684 5683 5683 5683 5683 5682 5682 5682 5681 5681 5680 5679 5679 5678 5677 5676 5675 5675 5674 5674 5674 5674 5674 5674 5673 5673 5673 5672 5671 5670 5669 5668 5667 5666 5665 5663 5662 5660 5659 5657 5656 5654 5652 5651 5649 5647 5645 5643 5641 5639 5637 5635 5632 5630 5628 5626 5624 5623 5621 5619
5672 5672 5673 5674 5674 5673 5673 5674 5674 5674 5674 5674 5674 5674 5675 5675 5676 5676 5676 5676 5676 5677 5677 5678 5679 5679 5679 5678 5678 5678 5678 5677 5677 5676 5676 5675 5674 5674 5673 5672 5671 5671 5670 5671 5671 5671 5670 5670 5670 5670 5670 5669 5669 5668 5667 5666 5665 5664 5663 5661 5660 5659 5658 5656 5655 5653 5652 5650 5648 5646 5644 5642 5641 5639 5637 5635 5633 5631 5629 5627 5625 5623 5621 5620 5618